Location: LDNL
(36.4545°S, 141.6685°E)
Time: 18:21:13
(UTC+10:00)

A-11 Canister half - Pass Details

Date: 01 February 2022
Orbit: 1527 x 1682 km, 47.3° (Epoch: 20 May)

Event Time Altitude Azimuth Distance (km) Brightness Sun altitude
Rises 06:13:47 0° 239° (WSW) 4,882 11.3 -7.3°
Reaches altitude 10° 06:17:04 10° 243° (WSW) 3,871 10.8 -6.7°
Maximum altitude 06:26:25 51° 314° (NW) 1,932 9.2 -5.1°
Drops below altitude 10° 06:35:27 10° 27° (NNE) 3,731 11.1 -3.4°
Sets 06:38:34 0° 32° (NNE) 4,694 11.7 -2.8°
